Tracking 29892 objects as of 21-Nov-2024
HD Live streaming from Space Station
objects crossing your sky now

STARLINK-30084

Track STARLINK-30084 now!
10-day predictions
STARLINK-30084 is classified as:


NORAD ID: 56825
Int'l Code: 2023-079C
Perigee: 565.5 km
Apogee: 566.9 km
Inclination: 43.0 °
Period: 95.8 minutes
Semi major axis: 6937 km
RCS: Unknown
Launch date: June 4, 2023
Source: United States (US)
Launch site: AIR FORCE EASTERN TEST RANGE (AFETR)
Your satellite tracking list
Your tracking list is empty




NASA's NSSDC Master Catalog

Two Line Element Set (TLE):
1 56825U 23079C   24325.90136892  .00001370  00000-0  11647-3 0  9994
2 56825  43.0026 161.8696 0000992 268.8508  91.2221 15.02540612 81616
Source of the keplerian elements: AFSPC